Regional Weather Roundup
Issued by NWS

Home | Current Version | Previous Version | Graphics & Text | Print | Product List | Glossary On
Versions: 1 2 3 4 5 6 7 8 9 10 11 12 13 14 15 16 17 18 19 20 21 22 23 24 25 26 27 28 29 30 31 32 33 34 35 36 37 38 39 40 41 42 43 44 45 46 47 48 49 50
000
ASUS45 KSLC 270010
RWRUT

UTAH REGIONAL WEATHER ROUNDUP
NATIONAL WEATHER SERVICE SALT LAKE CITY UT
600 PM MDT MON SEP 26 2016

UTZ001>011-023>025-270100-

NORTHERN UTAH

CITY           SKY/WX    TMP DP  RH WIND       PRES   REMARKS
BRIGHAM CITY     N/A     73  43  34 SW3       30.28F
HILL AFB       SUNNY     68  50  53 W6        30.30F
LOGAN          SUNNY     72  44  36 SW3       30.28F
OGDEN          SUNNY     69  50  50 W6        30.28F
PROVO AIRPORT  SUNNY     68  45  43 CALM      30.29F
SALT LAKE CITY MOSUNNY   71  50  47 NW8       30.27F
VERNAL         SUNNY     68  42  38 E3        30.32F
WENDOVER       SUNNY     70  39  32 E6        30.30F
HEBER CITY     SUNNY     73  37  27 SW9       30.28F
WEST JORDAN    SUNNY     68  47  47 NW8       30.30F

$$

UTZ012>022-026-027-270100-

SOUTHERN/CENTRAL UTAH

CITY           SKY/WX    TMP DP  RH WIND       PRES   REMARKS
BLANDING       SUNNY     73  33  22 CALM      30.37F
BRYCE CANYON   SUNNY     65  27  23 SE8       30.41F
CEDAR CITY     SUNNY     75  32  20 N7        30.27F
DELTA          SUNNY     73  34  23 NW5       30.28F
MILFORD        SUNNY     75  36  24 N12       30.26F
MOAB/CYNLANDS  SUNNY     76  34  21 W6        30.23F
PRICE          SUNNY     70  33  25 CALM      30.33F
ST GEORGE      CLEAR     88  36  15 W3        30.11F

$$

REGIONAL REPORTS     COLORADO/ARIZONA

CITY           SKY/WX    TMP DP  RH WIND       PRES   REMARKS
CRAIG, CO      SUNNY     70  29  21 SW6       30.36F
GRAND JUNCTION SUNNY     74  36  25 W8        30.25F
RIFLE          SUNNY     74  35  24 W9        30.28F
MONTROSE       SUNNY     71  36  27 W7        30.31F
CORTEZ         SUNNY     73  39  29 S9        30.29F
PAGE, AZ       SUNNY     79  31  17 N8        30.21F
GRAND CANYON   SUNNY     69  34  27 NE13      30.34F
KINGMAN        SUNNY     88  32  13 N15G21    30.07F
FLAGSTAFF      MOSUNNY   67  25  20 E15G21    30.31F

$$

REGIONAL REPORTS    NEVADA/IDAHO/WYOMING

CITY           SKY/WX    TMP DP  RH WIND       PRES   REMARKS
LAS VEGAS, NV  MOSUNNY   90  28  11 E6        30.03F
ELY            SUNNY     75  31  19 N9        30.32F
ELKO           SUNNY     82  34  17 N6        30.24F
POCATELLO, ID  SUNNY     73  44  35 NW6       30.30F
BURLEY         MOSUNNY   74  43  32 E6        30.24F
EVANSTON, WY   SUNNY     68  34  28 NW8       30.40F
ROCK SPRINGS   SUNNY     65  37  35 E5        30.39F

$$



USA.gov is the U.S. government's official web portal to all federal, state and local government web resources and services.